Date String (YYYY-MM-DD hh:mm:ss) UTC,Instrument flags,Ambient pressure (hPa),Sample flow (lpm),Bypass flow (lpm),Sample temperature (°C),Ambient temperature (°C),ASC tube jacket temperature (°C),LED temperature (°C),Box temperature (°C),Sample RH (%),Span deviation,Mass concentration (μg/m³),Mass concentration (μg/m³),Mass concentration (μg/m³)
DateTimeUTC,F1_M11,P_M11,Q1_M11,Q2_M11,T1_M11,T2_M11,T3_M11,T4_M11,T5_M11,U1_M11,ZSPAN_M11,X2_M11,X0_M11,X1_M11
2021-11-24 02:00:00,,0815.4,5.00,0.00,27.0,26.2,00.0,36.1,28.7,08.9,0000.0,0002.25,0005.55,0001.62
2021-11-24 02:01:00,,0815.4,5.01,0.00,27.0,26.2,00.0,36.1,28.7,08.8,0000.0,0002.23,0005.39,0001.61
2021-11-24 02:02:00,,0815.4,5.00,0.00,27.0,26.2,00.0,36.1,28.8,08.8,0000.0,0002.27,0005.46,0001.60
2021-11-24 02:03:00,,0815.4,5.00,0.00,27.0,26.2,00.0,36.1,28.7,08.7,0000.0,0002.29,0005.15,0001.61
2021-11-24 02:04:00,,0815.4,5.00,0.00,27.1,26.3,00.0,36.1,28.8,08.6,0000.0,0002.26,0005.06,0001.60
2021-11-24 02:05:00,,0815.4,5.00,0.00,27.1,26.3,00.0,36.1,28.8,08.6,0000.0,0002.24,0004.30,0001.59
2021-11-24 02:06:00,,0815.4,5.01,0.00,27.1,26.3,00.0,36.1,28.8,08.6,0000.0,0002.23,0003.74,0001.60
2021-11-24 02:07:00,,0815.4,5.01,0.00,27.1,26.3,00.0,36.1,28.8,08.6,0000.0,0002.20,0003.95,0001.59
2021-11-24 02:08:00,,0815.3,5.00,0.00,27.1,26.3,00.0,36.1,28.8,08.6,0000.0,0002.20,0005.61,0001.59
2021-11-24 02:09:00,,0815.4,5.00,0.00,27.1,26.3,00.0,36.1,28.8,08.6,0000.0,0002.20,0006.49,0001.59
2021-11-24 02:10:00,,0815.2,4.99,0.00,27.1,26.3,00.0,36.1,28.8,08.5,0000.0,0002.16,0006.69,0001.58
2021-11-24 02:11:00,,0815.2,5.01,0.00,27.1,26.3,00.0,36.1,28.8,08.4,0000.0,0002.08,0006.80,0001.57
2021-11-24 02:12:00,,0815.2,4.99,0.00,27.1,26.3,00.0,36.1,28.8,08.3,0000.0,0002.06,0006.67,0001.57
2021-11-24 02:13:00,,0815.3,4.99,0.00,27.1,26.3,00.0,36.1,28.8,08.2,0000.0,0002.06,0006.78,0001.56
2021-11-24 02:14:00,,0815.3,5.00,0.00,27.1,26.3,00.0,36.1,28.8,08.3,0000.0,0002.08,0007.04,0001.55
2021-11-24 02:15:00,,0815.1,5.00,0.00,27.1,26.3,00.0,36.1,28.9,08.2,0000.0,0002.07,0007.82,0001.55
2021-11-24 02:16:00,,0815.2,5.01,0.00,27.1,26.4,00.0,36.1,28.9,08.0,0000.0,0002.05,0007.76,0001.55
2021-11-24 02:17:00,,0815.2,5.01,0.00,27.1,26.4,00.0,36.1,28.8,08.0,0000.0,0002.04,0007.76,0001.54
2021-11-24 02:18:00,,0815.1,4.98,0.00,27.1,26.4,00.0,36.1,28.9,08.0,0000.0,0002.02,0007.58,0001.53
2021-11-24 02:19:00,,0815.0,5.01,0.00,27.1,26.4,00.0,36.1,28.9,08.1,0000.0,0002.00,0006.31,0001.52
2021-11-24 02:20:00,,0815.1,5.00,0.00,27.1,26.4,00.0,36.2,28.9,08.1,0000.0,0002.02,0005.20,0001.53
2021-11-24 02:21:00,,0815.0,5.01,0.00,27.1,26.3,00.0,36.2,28.8,08.1,0000.0,0002.07,0005.18,0001.53
2021-11-24 02:22:00,,0815.0,5.00,0.00,27.1,26.3,00.0,36.2,28.8,08.1,0000.0,0002.12,0004.84,0001.53
2021-11-24 02:23:00,,0814.9,5.00,0.00,27.2,26.3,00.0,36.2,28.9,08.2,0000.0,0002.16,0004.86,0001.54
2021-11-24 02:24:00,,0814.9,5.01,0.00,27.1,26.3,00.0,36.2,28.9,08.3,0000.0,0002.20,0006.13,0001.57
2021-11-24 02:25:00,,0814.9,5.01,0.00,27.1,26.3,00.0,36.2,28.9,08.3,0000.0,0002.23,0006.63,0001.58
2021-11-24 02:26:00,,0814.9,5.00,0.00,27.1,26.3,00.0,36.2,28.9,08.3,0000.0,0002.30,0006.42,0001.60
2021-11-24 02:27:00,,0814.9,5.00,0.00,27.1,26.2,00.0,36.2,28.9,08.4,0000.0,0002.34,0006.50,0001.61
2021-11-24 02:28:00,,0814.9,5.00,0.00,27.1,26.2,00.0,36.2,28.8,08.3,0000.0,0002.35,0006.48,0001.63
2021-11-24 02:29:00,,0814.9,5.00,0.00,27.1,26.2,00.0,36.2,28.8,08.3,0000.0,0002.37,0006.61,0001.63
2021-11-24 02:30:00,,0814.9,5.00,0.00,27.1,26.2,00.0,36.2,28.8,08.3,0000.0,0002.39,0006.82,0001.63
2021-11-24 02:31:00,,0814.9,5.00,0.00,27.1,26.2,00.0,36.2,28.8,08.3,0000.0,0002.41,0007.90,0001.64
2021-11-24 02:32:00,,0814.9,5.00,0.00,27.1,26.2,00.0,36.2,28.8,08.4,0000.0,0002.38,0008.08,0001.65
2021-11-24 02:33:00,,0814.9,5.00,0.00,27.1,26.2,00.0,36.2,28.8,08.5,0000.0,0002.40,0008.14,0001.66
2021-11-24 02:34:00,,0814.9,4.99,0.00,27.1,26.2,00.0,36.2,28.8,08.4,0000.0,0002.38,0008.14,0001.67
2021-11-24 02:35:00,,0814.9,5.00,0.00,27.1,26.2,00.0,36.2,28.8,08.5,0000.0,0002.37,0007.40,0001.66
2021-11-24 02:36:00,,0814.9,5.00,0.00,27.1,26.2,00.0,36.2,28.8,08.5,0000.0,0002.35,0006.63,0001.67
2021-11-24 02:37:00,,0814.9,5.00,0.00,27.1,26.3,00.0,36.2,28.8,08.6,0000.0,0002.31,0005.87,0001.66
2021-11-24 02:38:00,,0814.9,5.01,0.00,27.1,26.3,00.0,36.2,28.8,08.6,0000.0,0002.30,0005.99,0001.64
2021-11-24 02:39:00,,0814.9,4.99,0.00,27.1,26.3,00.0,36.2,28.8,08.6,0000.0,0002.31,0006.19,0001.64
2021-11-24 02:40:00,,0814.8,5.00,0.00,27.1,26.3,00.0,36.2,28.8,08.5,0000.0,0002.33,0006.33,0001.65
2021-11-24 02:41:00,,0814.9,4.99,0.00,27.1,26.3,00.0,36.2,28.8,08.5,0000.0,0002.38,0006.42,0001.67
2021-11-24 02:42:00,,0814.9,5.00,0.00,27.1,26.3,00.0,36.2,28.9,08.6,0000.0,0002.41,0005.26,0001.66
2021-11-24 02:43:00,,0815.0,5.01,0.00,27.1,26.3,00.0,36.2,28.8,08.6,0000.0,0002.44,0005.06,0001.66
2021-11-24 02:44:00,,0815.0,4.99,0.00,27.1,26.3,00.0,36.2,28.8,08.5,0000.0,0002.40,0004.91,0001.65
2021-11-24 02:45:00,,0815.2,5.00,0.00,27.1,26.3,00.0,36.2,28.8,08.5,0000.0,0002.36,0004.80,0001.66
2021-11-24 02:46:00,,0815.0,5.00,0.00,27.1,26.3,00.0,36.2,28.8,08.5,0000.0,0002.37,0004.99,0001.67
2021-11-24 02:47:00,,0814.8,4.99,0.00,27.1,26.3,00.0,36.2,28.8,08.4,0000.0,0002.38,0005.04,0001.67
2021-11-24 02:48:00,,0814.8,5.00,0.00,27.1,26.4,00.0,36.2,28.9,08.3,0000.0,0002.36,0004.93,0001.66
2021-11-24 02:49:00,,0814.8,5.01,0.00,27.2,26.4,00.0,36.2,28.9,08.3,0000.0,0002.35,0005.20,0001.66
2021-11-24 02:50:00,,0814.9,5.00,0.00,27.2,26.4,00.0,36.2,28.9,08.4,0000.0,0002.33,0005.67,0001.67
2021-11-24 02:51:00,,0814.9,4.98,0.00,27.2,26.4,00.0,36.2,28.9,08.4,0000.0,0002.32,0005.62,0001.66
2021-11-24 02:52:00,,0814.9,5.00,0.00,27.2,26.4,00.0,36.2,28.9,08.5,0000.0,0002.29,0005.56,0001.65
2021-11-24 02:53:00,,0814.8,5.01,0.00,27.2,26.4,00.0,36.2,28.9,08.6,0000.0,0002.26,0005.23,0001.65
2021-11-24 02:54:00,,0814.9,5.00,0.00,27.2,26.4,00.0,36.2,29.0,08.8,0000.0,0002.25,0004.97,0001.66
2021-11-24 02:55:00,,0815.0,4.99,0.00,27.1,26.3,00.0,36.2,28.9,09.0,0000.0,0002.33,0005.17,0001.67
2021-11-24 02:56:00,,0815.1,5.00,0.00,27.1,26.3,00.0,36.2,28.8,09.0,0000.0,0002.34,0005.29,0001.67
2021-11-24 02:57:00,,0815.0,5.01,0.00,27.1,26.3,00.0,36.2,28.8,09.0,0000.0,0002.33,0005.16,0001.69
2021-11-24 02:58:00,,0815.1,5.00,0.00,27.1,26.2,00.0,36.2,28.8,09.1,0000.0,0002.31,0005.02,0001.70
2021-11-24 02:59:00,,0815.1,5.00,0.00,27.1,26.2,00.0,36.2,28.8,09.0,0000.0,0002.32,0005.01,0001.73
